TimeCDT,TemperatureF,Dew PointF,Humidity,Sea Level PressureIn,VisibilityMPH,Wind Direction,Wind SpeedMPH,Gust SpeedMPH,PrecipitationIn,Events,Conditions,WindDirDegrees,DateUTC
12:15 AM,21.7,18.0,85,30.34,10.0,Calm,Calm,-,N/A,,Clear,0,2012-10-29 05:15:00
12:35 AM,21.4,18.0,87,30.33,10.0,Calm,Calm,-,N/A,,Clear,0,2012-10-29 05:35:00
12:55 AM,21.0,17.8,87,30.33,10.0,Calm,Calm,-,N/A,,Clear,0,2012-10-29 05:55:00
1:15 AM,20.8,18.0,89,30.33,10.0,Calm,Calm,-,N/A,,Clear,0,2012-10-29 06:15:00
1:55 AM,21.6,17.6,85,30.34,10.0,Calm,Calm,-,N/A,,Clear,0,2012-10-29 06:55:00
2:15 AM,19.8,16.9,89,30.34,10.0,Calm,Calm,-,N/A,,Clear,0,2012-10-29 07:15:00
2:35 AM,19.9,17.4,90,30.34,10.0,Calm,Calm,-,N/A,,Clear,0,2012-10-29 07:35:00
2:55 AM,20.8,17.6,87,30.34,10.0,Calm,Calm,-,N/A,,Clear,0,2012-10-29 07:55:00
3:15 AM,19.6,16.9,89,30.34,10.0,Calm,Calm,-,N/A,,Clear,0,2012-10-29 08:15:00
4:15 AM,18.1,16.2,92,30.35,10.0,Calm,Calm,-,N/A,,Clear,0,2012-10-29 09:15:00
4:55 AM,17.6,15.6,92,30.35,10.0,Calm,Calm,-,N/A,,Clear,0,2012-10-29 09:55:00
5:15 AM,19.4,17.1,91,30.35,10.0,Calm,Calm,-,N/A,,Clear,0,2012-10-29 10:15:00
5:35 AM,19.0,16.3,89,30.35,10.0,Calm,Calm,-,N/A,,Clear,0,2012-10-29 10:35:00
5:55 AM,17.6,15.4,91,30.35,10.0,Calm,Calm,-,N/A,,Clear,0,2012-10-29 10:55:00
6:15 AM,18.3,16.7,93,30.36,10.0,Calm,Calm,-,N/A,,Clear,0,2012-10-29 11:15:00
6:35 AM,18.3,16.7,93,30.37,10.0,Calm,Calm,-,N/A,,Clear,0,2012-10-29 11:35:00
6:55 AM,18.9,16.2,89,30.37,10.0,Calm,Calm,-,N/A,,Clear,0,2012-10-29 11:55:00
7:15 AM,18.3,16.0,91,30.37,10.0,Calm,Calm,-,N/A,,Clear,0,2012-10-29 12:15:00
7:35 AM,18.0,16.2,93,30.37,10.0,Calm,Calm,-,N/A,,Clear,0,2012-10-29 12:35:00
7:55 AM,18.5,16.5,92,30.37,10.0,Calm,Calm,-,N/A,,Clear,0,2012-10-29 12:55:00
8:15 AM,19.9,17.4,90,30.37,10.0,Calm,Calm,-,N/A,,Clear,0,2012-10-29 13:15:00
8:35 AM,22.6,20.1,90,30.38,10.0,Calm,Calm,-,N/A,,Clear,0,2012-10-29 13:35:00
8:55 AM,25.9,22.5,87,30.37,10.0,Calm,Calm,-,N/A,,Clear,0,2012-10-29 13:55:00
9:15 AM,28.2,23.4,82,30.37,10.0,Calm,Calm,-,N/A,,Clear,0,2012-10-29 14:15:00
9:35 AM,31.3,25.5,79,30.36,10.0,Calm,Calm,-,N/A,,Clear,0,2012-10-29 14:35:00
9:55 AM,33.6,25.9,73,30.36,10.0,Calm,Calm,-,N/A,,Clear,0,2012-10-29 14:55:00
10:15 AM,35.6,25.7,67,30.36,10.0,Calm,Calm,-,N/A,,Clear,0,2012-10-29 15:15:00
10:35 AM,37.6,24.4,59,30.36,10.0,Calm,Calm,-,N/A,,Clear,0,2012-10-29 15:35:00
10:55 AM,39.4,24.3,55,30.35,10.0,NNW,3.5,-,N/A,,Clear,340,2012-10-29 15:55:00
11:15 AM,40.3,22.8,50,30.35,7.0,Calm,Calm,-,N/A,,Clear,0,2012-10-29 16:15:00
11:35 AM,41.5,22.1,46,30.35,10.0,NE,5.8,-,N/A,,Clear,40,2012-10-29 16:35:00
11:55 AM,42.3,22.1,45,30.34,10.0,NE,3.5,-,N/A,,Clear,40,2012-10-29 16:55:00
12:15 PM,42.8,21.7,43,30.34,10.0,East,3.5,-,N/A,,Clear,80,2012-10-29 17:15:00
12:35 PM,43.7,21.0,41,30.33,10.0,NE,3.5,-,N/A,,Clear,40,2012-10-29 17:35:00
12:55 PM,43.9,20.7,40,30.33,10.0,NNE,3.5,-,N/A,,Clear,20,2012-10-29 17:55:00
1:15 PM,44.2,20.3,39,30.32,10.0,ESE,5.8,-,N/A,,Clear,120,2012-10-29 18:15:00
1:35 PM,45.1,20.1,37,30.30,10.0,North,3.5,-,N/A,,Clear,10,2012-10-29 18:35:00
1:55 PM,44.8,16.5,32,30.30,10.0,North,6.9,-,N/A,,Clear,360,2012-10-29 18:55:00
2:15 PM,44.8,16.9,33,30.29,10.0,North,5.8,-,N/A,,Clear,350,2012-10-29 19:15:00
2:35 PM,45.9,19.6,35,30.29,10.0,North,4.6,-,N/A,,Clear,360,2012-10-29 19:35:00
2:55 PM,45.9,19.9,36,30.28,10.0,NW,4.6,-,N/A,,Clear,320,2012-10-29 19:55:00
3:15 PM,46.6,20.7,36,30.28,10.0,NNE,3.5,-,N/A,,Clear,20,2012-10-29 20:15:00
3:35 PM,46.6,20.7,36,30.28,10.0,NNE,5.8,-,N/A,,Clear,20,2012-10-29 20:35:00
3:55 PM,46.8,20.1,35,30.27,10.0,North,4.6,-,N/A,,Clear,350,2012-10-29 20:55:00
4:15 PM,46.4,19.6,34,30.27,10.0,NNE,5.8,-,N/A,,Clear,30,2012-10-29 21:15:00
4:55 PM,45.5,19.6,36,30.27,10.0,North,5.8,-,N/A,,Clear,10,2012-10-29 21:55:00
5:15 PM,44.6,20.3,38,30.26,10.0,North,3.5,-,N/A,,Clear,350,2012-10-29 22:15:00
5:35 PM,43.7,20.5,40,30.26,10.0,North,3.5,-,N/A,,Clear,350,2012-10-29 22:35:00
5:55 PM,42.1,20.8,43,30.26,10.0,NNW,3.5,-,N/A,,Clear,340,2012-10-29 22:55:00
6:15 PM,41.0,20.8,45,30.25,10.0,Calm,Calm,-,N/A,,Clear,0,2012-10-29 23:15:00
6:35 PM,38.7,21.9,51,30.25,10.0,North,4.6,-,N/A,,Clear,360,2012-10-29 23:35:00
7:35 PM,36.3,21.2,54,30.25,10.0,NNW,3.5,-,N/A,,Clear,340,2012-10-30 00:35:00
10:35 PM,33.4,23.9,68,30.21,10.0,NE,6.9,-,N/A,,Clear,40,2012-10-30 03:35:00
10:55 PM,32.2,23.2,69,30.21,10.0,NNE,3.5,-,N/A,,Clear,20,2012-10-30 03:55:00
11:15 PM,33.4,23.4,67,30.21,10.0,NNE,4.6,-,N/A,,Clear,20,2012-10-30 04:15:00
11:35 PM,32.4,23.0,68,30.20,10.0,Calm,Calm,-,N/A,,Clear,0,2012-10-30 04:35:00
11:55 PM,32.5,22.8,67,30.20,10.0,Calm,Calm,-,N/A,,Clear,0,2012-10-30 04:55:00